Location: Białystok
(53.1343°N, 23.1544°E)
Time: 07:15:33
(UTC+02:00)

ISS - Visible Passes

Search period start: 27 May 2018 00:00
Search period end: 06 June 2018 00:00
Orbit: 402 x 407 km, 51.6° (Epoch: 27 May)

Date Brightness Start Highest point End Pass type
(mag) Time Alt. Az. Time Alt. Az. Time Alt. Az.
27 May -3.0 00:23:49 10° W 00:26:26 32° SW 00:26:26 32° SW visible
27 May -3.9 21:55:08 10° W 21:58:24 68° S 22:01:40 10° E visible
27 May -3.5 23:31:35 10° W 23:34:43 45° SSW 23:35:44 33° SSE visible
28 May -3.7 22:39:21 10° W 22:42:35 56° SSW 22:45:04 15° ESE visible
29 May -2.1 00:16:05 10° W 00:17:42 19° WSW 00:17:42 19° WSW visible
29 May -3.8 21:47:09 10° W 21:50:24 65° S 21:53:39 10° ESE visible
29 May -2.9 23:23:41 10° W 23:26:36 30° SSW 23:27:06 28° S visible
30 May -3.3 22:31:23 10° W 22:34:30 41° SSW 22:36:31 18° SE visible
31 May -1.3 00:08:50 10° WSW 00:09:09 11° WSW 00:09:09 11° WSW visible
31 May -3.6 21:39:07 10° W 21:42:20 52° SSW 21:45:32 10° ESE visible
31 May -2.2 23:15:57 10° W 23:18:21 19° SSW 23:18:35 19° SSW visible
01 Jun -2.6 22:23:27 10° W 22:26:17 27° SSW 22:28:04 17° SSE visible
02 Jun -3.0 21:31:05 10° W 21:34:09 37° SSW 21:37:12 10° SE visible
02 Jun -1.4 23:09:04 10° WSW 23:09:56 11° SW 23:10:11 11° SW visible
03 Jun -1.8 22:15:46 10° WSW 22:17:55 16° SW 22:19:41 12° S visible
